Location: Blackwater Beach
(38.5801°N, 75.1577°W)
Time: 10:19:02
(UTC+00:00)

Daily predictions for brighter satellites

Satellite Brightness Start Highest point End
(mag) Time Altitude Azimuth Time Altitude Azimuth Time Altitude Azimuth
Cosmos 1356 Rocket 3.2 22:58:00 10° N 23:01:58 72° E 23:05:56 10° SSE
Cosmos 1725 Rocket 4.3 22:56:41 10° N 23:02:57 79° W 23:09:13 10° S
Cosmos 2297 Rocket 2.2 22:58:29 10° SSW 23:04:06 70° ESE 23:09:45 10° NNE
SPOT 1/Viking Rocket 3.5 23:00:17 10° SSE 23:05:22 76° ENE 23:10:29 10° N
Okean 1 Rocket 3.2 23:02:09 10° N 23:06:25 50° E 23:10:37 10° SSE
SJ-6F 4.3 23:03:53 10° SSE 23:07:50 83° ENE 23:11:46 10° N
Cosmos 192 4.3 23:03:07 10° NNW 23:08:01 81° ENE 23:12:53 10° SSE
Cosmos 2221 Rocket 3.6 23:04:30 10° S 23:08:56 71° E 23:13:24 10° NNE
Okean 2 Rocket 3.0 23:07:54 10° N 23:12:17 70° E 23:16:37 10° SSE
CZ-2D R/B 3.8 23:10:20 10° S 23:13:18 48° W 23:16:17 10° NNW
Cosmos 1025 Rocket 3.4 23:13:21 10° SSW 23:17:35 68° W 23:21:55 10° N
Meteor 2-1 Rocket 4.3 23:14:12 10° N 23:20:03 79° E 23:25:59 10° SSE
USA 306 0.5 23:18:41 10° NW 23:21:08 76° NE 23:22:14 16° SE
Radarsat Rocket 4.1 23:15:42 10° SE 23:21:18 52° ENE 23:27:16 10° N
SAR-Lupe-1 4.0 23:19:51 10° SSE 23:23:24 88° WSW 23:26:59 10° NNW
Cosmos 2061 Rocket 4.1 23:19:06 10° N 23:25:29 89° W 23:31:45 10° S
IRS-P3 4.4 23:20:31 10° S 23:25:49 74° WSW 23:31:09 10° NNW
CZ-4C R/B 3.8 23:22:40 10° W 23:26:02 22° NW 23:30:01 10° NNE
Sich 1 Rocket 3.6 23:23:06 10° N 23:27:41 84° E 23:32:13 10° S
ATLAS 5 CENTAUR R/B 3.8 23:23:54 10° NW 23:28:14 34° WSW 23:33:24 10° S
Aureole 3 Rocket 2.4 23:25:16 10° N 23:28:44 52° E 23:31:42 10° SSE
Resurs 1-3 3.5 23:25:23 10° SSE 23:29:40 84° ENE 23:33:59 10° N
Tiangong -2.0 23:27:17 10° W 23:30:27 72° NNW 23:32:35 19° ENE
SKYMED 2 4.5 23:27:44 10° N 23:31:58 52° WNW 23:36:09 10° SSW
Cosmos 2263 Rocket 3.1 23:27:33 10° SSE 23:32:14 27° ESE 23:36:57 10° NE
Resurs 01 Rocket 2.1 23:29:16 10° SE 23:33:17 37° ENE 23:37:20 10° N
Cosmos 1980 3.7 23:32:44 10° NNW 23:38:21 64° ENE 23:43:56 10° SSE
SeaSat 1 2.7 23:33:37 10° SSE 23:38:29 72° WSW 23:43:23 10° NNW
Cosmos 1570 Rocket 4.2 23:35:46 10° SSW 23:41:02 77° WNW 23:46:19 10° NNE
COSMOS 2428 3.7 23:36:34 10° NNW 23:42:06 52° WSW 23:47:36 10° S
SPOT 5 4.3 23:42:58 18° ENE 23:42:58 18° ENE 23:46:03 10° NNE
Cosmos 2237 Rocket 2.2 23:37:58 10° NNW 23:43:38 65° ENE 23:49:16 10° SSE
Cosmos 1346 Rocket 3.2 23:40:54 10° SSE 23:44:06 31° E 23:46:15 17° NE
Cosmos 1125 Rocket 3.7 23:39:43 10° NNW 23:44:55 77° WSW 23:50:05 10° SSE
Meteor 1-27 4.2 23:42:10 10° N 23:47:57 66° E 23:53:44 10° SSE
CARTOSAT-1 3.4 23:47:37 10° SSE 23:51:49 83° ENE 23:56:02 10° N
Haruka 4.0 23:47:31 10° WSW 23:55:01 36° S 23:57:09 21° SE
